Weather History for KHXD - November, 2012

Change the Weather History Date:

Friday, November 23, 2012

  Actual Average Record
Temperature  
Mean Temperature 52 °F -  
Max Temperature 66 °F 66 °F 79 °F (1992)
Min Temperature 37 °F 47 °F 25 °F (1976)
Degree Days  
Heating Degree Days 14    
Growing Degree Days 2 (Base 50)    
Moisture  
Dew Point 44 °F    
Average Humidity 87    
Maximum Humidity 100    
Minimum Humidity 37    
Precipitation  
Precipitation 0.00 in - - ()
Sea Level Pressure  
Sea Level Pressure 30.11 in    
Wind  
Wind Speed 2 mph (SW)    
Max Wind Speed 9 mph    
Max Gust Speed -    
Visibility 10 miles    
Events      
Averages and records for this station are not official NWS values.
T = Trace of Precipitation, MM = Missing Value Source: NWS Daily Summary

Daily Weather History Graph

Daily Weather History Graph

Search for Another Location

Airport or City:

Trip Planner

Search our weather history database for the weather conditions in past years. The results will help you decide how hot, cold, wet, or windy it might be!

Date:

Astronomy

Nov. 23, 2012 Rise Set
Actual Time 6:59 AM EST 5:19 PM EST
Civil Twilight 6:33 AM EST 5:45 PM EST
Nautical Twilight 6:03 AM EST 6:15 PM EST
Astronomical Twilight 5:33 AM EST 6:44 PM EST
Moon 2:20 PM EST (11/23) 2:30 AM EST (11/23)
Length of Visible Light 11h 12m
Length of Day
10h 19m
Waxing Gibbous, 79% of the Moon is Illuminated
Nov 23
Waxing Gibbous
Nov 28
Full
Dec 6
Last Quarter
Dec 13
New
Dec 20
First Quarter

Hourly Weather History & Observations

Time (EST) Temp. Windchill Dew Point Humidity Pressure Visibility Wind Dir Wind Speed Gust Speed Precip Events Conditions
12:15 AM 41.0 °F - 41.0 °F 100% 30.20 in 10.0 mi Calm Calm - 0.00 in   Clear
12:35 AM 39.2 °F 35.9 °F 39.2 °F 100% 30.19 in 10.0 mi North 4.6 mph - 0.00 in   Clear
12:55 AM 41.0 °F - 41.0 °F 100% 30.19 in 10.0 mi Calm Calm - 0.00 in   Clear
1:15 AM 41.0 °F - 41.0 °F 100% 30.18 in 10.0 mi Calm Calm - 0.00 in   Clear
1:35 AM 39.2 °F - 39.2 °F 100% 30.18 in 10.0 mi Calm Calm - 0.00 in   Clear
1:55 AM 39.2 °F - 39.2 °F 100% 30.18 in 10.0 mi Calm Calm - 0.00 in   Clear
2:15 AM 39.2 °F - 39.2 °F 100% 30.18 in 10.0 mi Calm Calm - 0.00 in   Clear
2:35 AM 39.2 °F - 39.2 °F 100% 30.18 in 10.0 mi Calm Calm - 0.00 in   Clear
2:55 AM 39.2 °F - 39.2 °F 100% 30.18 in 10.0 mi Calm Calm - 0.00 in   Clear
3:15 AM 39.2 °F - 39.2 °F 100% 30.18 in 10.0 mi Calm Calm - 0.00 in   Clear
3:35 AM 39.2 °F - 39.2 °F 100% 30.17 in 10.0 mi Calm Calm - 0.00 in   Clear
3:55 AM 39.2 °F - 39.2 °F 100% 30.18 in 10.0 mi Calm Calm - 0.00 in   Clear
4:15 AM 39.2 °F - 39.2 °F 100% 30.18 in 10.0 mi Calm Calm - 0.00 in   Clear
4:35 AM 37.4 °F - 37.4 °F 100% 30.18 in 10.0 mi Calm Calm - 0.00 in   Clear
4:55 AM 37.4 °F 34.9 °F 37.4 °F 100% 30.19 in 10.0 mi West 3.5 mph - 0.00 in   Clear
5:15 AM 39.2 °F - 39.2 °F 100% 30.19 in 10.0 mi Calm Calm - 0.00 in   Clear
5:35 AM 39.2 °F - 39.2 °F 100% 30.19 in 10.0 mi Calm Calm - 0.00 in   Clear
6:55 AM 37.4 °F - 37.4 °F 100% 30.20 in 10.0 mi Calm Calm - N/A   Clear
7:55 AM 39.2 °F - 39.2 °F 100% 30.20 in 10.0 mi Calm Calm - N/A   Clear
8:48 AM 46.4 °F - 46.4 °F 100% 30.21 in 10.0 mi Calm Calm - N/A   Clear
9:50 AM 57.2 °F - 42.8 °F 59% 30.20 in 10.0 mi Calm Calm - N/A   Clear
11:50 AM 62.6 °F - 37.4 °F 39% 30.17 in 10.0 mi WSW 5.8 mph - N/A   Clear
12:50 PM 66.2 °F - 39.2 °F 37% 30.12 in 10.0 mi SW 5.8 mph - N/A   Clear
1:50 PM 64.4 °F - 48.2 °F 56% 30.08 in 10.0 mi South 9.2 mph - N/A   Clear
2:50 PM 64.4 °F - 46.4 °F 52% 30.06 in 10.0 mi SSW 9.2 mph - N/A   Clear
3:50 PM 64.4 °F - 48.2 °F 56% 30.05 in 10.0 mi SSW 6.9 mph - N/A   Clear
4:50 PM 60.8 °F - 48.2 °F 63% 30.03 in 10.0 mi SSW 6.9 mph - N/A   Clear
5:50 PM 57.2 °F - 51.8 °F 82% 30.03 in 10.0 mi SSW 4.6 mph - N/A   Clear
7:50 PM 53.6 °F - 53.6 °F 100% 30.03 in 10.0 mi Calm Calm - N/A   Clear
8:15 PM 53.6 °F - 53.6 °F 100% 30.03 in 10.0 mi SSW 3.5 mph - 0.00 in   Clear
8:35 PM 51.8 °F - 51.8 °F 100% 30.03 in 10.0 mi SSW 4.6 mph - 0.00 in   Clear
8:55 PM 51.8 °F - 51.8 °F 100% 30.02 in 10.0 mi SSW 5.8 mph - 0.00 in   Clear
9:15 PM 53.6 °F - 53.6 °F 100% 30.02 in 10.0 mi SSW 4.6 mph - 0.00 in   Clear
9:35 PM 53.6 °F - 51.8 °F 94% 30.02 in 10.0 mi SSW 4.6 mph - 0.00 in   Clear
9:55 PM 53.6 °F - 50.0 °F 88% 30.02 in 10.0 mi SSW 5.8 mph - 0.00 in   Clear
10:15 PM 53.6 °F - 48.2 °F 82% 30.01 in 10.0 mi SSW 5.8 mph - 0.00 in   Clear
10:35 PM 55.4 °F - 48.2 °F 77% 30.01 in 10.0 mi SW 6.9 mph - 0.00 in   Clear
10:55 PM 57.2 °F - 46.4 °F 67% 30.00 in 10.0 mi SW 6.9 mph - 0.00 in   Clear
11:15 PM 57.2 °F - 46.4 °F 67% 30.00 in 10.0 mi SW 8.1 mph - 0.00 in   Clear
11:35 PM 57.2 °F - 46.4 °F 67% 29.99 in 10.0 mi SW 6.9 mph - 0.00 in   Clear
11:55 PM 57.2 °F - 46.4 °F 67% 29.99 in 10.0 mi SW 8.1 mph - 0.00 in   Partly Cloudy